Time,TemperatureF,DewpointF,PressureIn,WindDirection,WindDirectionDegrees,WindSpeedMPH,WindSpeedGustMPH,Humidity,HourlyPrecipIn,Conditions,Clouds,dailyrainin,SolarRadiationWatts/m^2,SoftwareType,DateUTC
2014-02-19 00:12:00,44.0,13.0,-100.00,West,263,5.0,10.0,28,0.00,,,0.00,0.000000,,2014-02-19 07:12:00,
2014-02-19 00:21:00,44.0,13.0,-100.00,West,263,5.0,10.0,28,0.00,,,0.00,0.000000,,2014-02-19 07:21:00,
2014-02-19 00:32:00,44.0,13.0,-100.00,West,263,5.0,10.0,28,0.00,,,0.00,0.000000,,2014-02-19 07:32:00,
2014-02-19 01:11:00,45.0,15.0,-100.00,West,260,6.0,13.0,29,0.00,,,0.00,0.000000,,2014-02-19 08:11:00,
2014-02-19 01:21:00,45.0,15.0,-100.00,West,260,6.0,13.0,29,0.00,,,0.00,0.000000,,2014-02-19 08:21:00,
2014-02-19 01:32:00,45.0,15.0,-100.00,West,260,6.0,13.0,29,0.00,,,0.00,0.000000,,2014-02-19 08:32:00,
2014-02-19 02:12:00,43.0,15.0,-100.00,West,260,5.0,9.0,32,0.00,,,0.00,0.000000,,2014-02-19 09:12:00,
2014-02-19 02:22:00,43.0,15.0,-100.00,West,260,5.0,9.0,32,0.00,,,0.00,0.000000,,2014-02-19 09:22:00,
2014-02-19 02:33:00,43.0,15.0,-100.00,West,260,5.0,9.0,32,0.00,,,0.00,0.000000,,2014-02-19 09:33:00,
2014-02-19 03:12:00,42.0,16.0,-100.00,West,263,5.0,9.0,35,0.00,,,0.00,0.000000,,2014-02-19 10:12:00,
2014-02-19 03:23:00,42.0,16.0,-100.00,West,263,5.0,9.0,35,0.00,,,0.00,0.000000,,2014-02-19 10:23:00,
2014-02-19 03:33:00,42.0,16.0,-100.00,West,263,5.0,9.0,35,0.00,,,0.00,0.000000,,2014-02-19 10:33:00,
2014-02-19 04:12:00,43.0,18.0,-100.00,West,259,6.0,10.0,36,0.00,,,0.00,0.000000,,2014-02-19 11:12:00,
2014-02-19 04:22:00,43.0,18.0,-100.00,West,259,6.0,10.0,36,0.00,,,0.00,0.000000,,2014-02-19 11:22:00,
2014-02-19 04:33:00,43.0,18.0,-100.00,West,259,6.0,10.0,36,0.00,,,0.00,0.000000,,2014-02-19 11:33:00,
2014-02-19 05:12:00,43.0,19.0,-100.00,WSW,257,7.0,10.0,37,0.00,,,0.00,0.000000,,2014-02-19 12:12:00,
2014-02-19 05:21:00,43.0,19.0,-100.00,WSW,257,7.0,10.0,37,0.00,,,0.00,0.000000,,2014-02-19 12:21:00,
2014-02-19 05:32:00,43.0,19.0,-100.00,WSW,257,7.0,10.0,37,0.00,,,0.00,0.000000,,2014-02-19 12:32:00,
2014-02-19 06:12:00,42.0,20.0,-100.00,West,259,6.0,10.0,41,0.00,,,0.00,0.000000,,2014-02-19 13:12:00,
2014-02-19 06:22:00,42.0,20.0,-100.00,West,259,6.0,10.0,41,0.00,,,0.00,0.000000,,2014-02-19 13:22:00,
2014-02-19 06:32:00,42.0,20.0,-100.00,West,259,6.0,10.0,41,0.00,,,0.00,0.000000,,2014-02-19 13:32:00,
2014-02-19 07:12:00,42.0,19.0,-100.00,West,262,7.0,9.0,39,0.00,,,-99.99,0.000000,,2014-02-19 14:12:00,
2014-02-19 07:22:00,42.0,19.0,-100.00,West,262,7.0,9.0,39,0.00,,,-99.99,0.000000,,2014-02-19 14:22:00,
2014-02-19 07:32:00,42.0,19.0,-100.00,West,262,7.0,9.0,39,0.00,,,-99.99,0.000000,,2014-02-19 14:32:00,
2014-02-19 08:11:00,44.0,17.0,-100.00,West,263,7.0,12.0,34,0.00,,,0.00,12.000000,,2014-02-19 15:11:00,
2014-02-19 08:22:00,44.0,17.0,-100.00,West,263,7.0,12.0,34,0.00,,,0.00,12.000000,,2014-02-19 15:22:00,
2014-02-19 08:33:00,44.0,17.0,-100.00,West,263,7.0,12.0,34,0.00,,,0.00,12.000000,,2014-02-19 15:33:00,
2014-02-19 09:13:00,48.0,9.0,-100.00,West,263,6.0,11.0,20,0.00,,,0.00,136.000000,,2014-02-19 16:13:00,
2014-02-19 09:23:00,48.0,9.0,-100.00,West,263,6.0,11.0,20,0.00,,,0.00,136.000000,,2014-02-19 16:23:00,
2014-02-19 09:33:00,48.0,9.0,-100.00,West,263,6.0,11.0,20,0.00,,,0.00,136.000000,,2014-02-19 16:33:00,
2014-02-19 10:12:00,56.0,19.0,-100.00,West,262,5.0,11.0,23,0.00,,,0.00,426.000000,,2014-02-19 17:12:00,
2014-02-19 10:22:00,56.0,19.0,-100.00,West,262,5.0,11.0,23,0.00,,,0.00,426.000000,,2014-02-19 17:22:00,
2014-02-19 10:33:00,56.0,19.0,-100.00,West,262,5.0,11.0,23,0.00,,,0.00,426.000000,,2014-02-19 17:33:00,
2014-02-19 11:12:00,58.0,18.0,-100.00,WSW,251,5.0,11.0,21,0.00,,,0.00,496.000000,,2014-02-19 18:12:00,
2014-02-19 11:22:00,58.0,18.0,-100.00,WSW,251,5.0,11.0,21,0.00,,,0.00,496.000000,,2014-02-19 18:22:00,
2014-02-19 11:33:00,58.0,18.0,-100.00,WSW,251,5.0,11.0,21,0.00,,,0.00,496.000000,,2014-02-19 18:33:00,
2014-02-19 12:12:00,56.0,12.0,-100.00,WSW,257,7.0,12.0,17,0.00,,,0.00,380.000000,,2014-02-19 19:12:00,
2014-02-19 12:22:00,56.0,12.0,-100.00,WSW,257,7.0,12.0,17,0.00,,,0.00,380.000000,,2014-02-19 19:22:00,
2014-02-19 12:32:00,56.0,12.0,-100.00,WSW,257,7.0,12.0,17,0.00,,,0.00,380.000000,,2014-02-19 19:32:00,
2014-02-19 13:11:00,56.0,23.0,-100.00,WSW,250,6.0,15.0,27,0.00,,,0.00,468.000000,,2014-02-19 20:11:00,
2014-02-19 13:22:00,56.0,23.0,-100.00,WSW,250,6.0,15.0,27,0.00,,,0.00,468.000000,,2014-02-19 20:22:00,
2014-02-19 13:32:00,56.0,23.0,-100.00,WSW,250,6.0,15.0,27,0.00,,,0.00,468.000000,,2014-02-19 20:32:00,
2014-02-19 14:11:00,59.0,20.0,-100.00,WSW,258,6.0,12.0,22,0.00,,,0.00,653.000000,,2014-02-19 21:11:00,
2014-02-19 14:22:00,59.0,20.0,-100.00,WSW,258,6.0,12.0,22,0.00,,,0.00,653.000000,,2014-02-19 21:22:00,
2014-02-19 14:33:00,59.0,20.0,-100.00,WSW,258,6.0,12.0,22,0.00,,,0.00,653.000000,,2014-02-19 21:33:00,
2014-02-19 15:12:00,58.0,22.0,-100.00,WSW,250,7.0,13.0,25,0.00,,,-99.99,650.000000,,2014-02-19 22:12:00,
2014-02-19 15:23:00,58.0,22.0,-100.00,WSW,250,7.0,13.0,25,0.00,,,-99.99,650.000000,,2014-02-19 22:23:00,
2014-02-19 15:33:00,58.0,22.0,-100.00,WSW,250,7.0,13.0,25,0.00,,,-99.99,650.000000,,2014-02-19 22:33:00,
2014-02-19 16:11:00,60.0,16.0,-100.00,WSW,250,7.0,11.0,18,0.00,,,0.00,524.000000,,2014-02-19 23:11:00,
2014-02-19 16:22:00,60.0,16.0,-100.00,WSW,250,7.0,11.0,18,0.00,,,0.00,524.000000,,2014-02-19 23:22:00,
2014-02-19 16:33:00,60.0,16.0,-100.00,WSW,250,7.0,11.0,18,0.00,,,0.00,524.000000,,2014-02-19 23:33:00,
2014-02-19 17:12:00,60.0,18.0,-100.00,WSW,251,7.0,14.0,19,0.00,,,0.00,497.000000,,2014-02-20 00:12:00,
2014-02-19 17:22:00,60.0,18.0,-100.00,WSW,251,7.0,14.0,19,0.00,,,0.00,497.000000,,2014-02-20 00:22:00,
2014-02-19 17:32:00,60.0,18.0,-100.00,WSW,251,7.0,14.0,19,0.00,,,0.00,497.000000,,2014-02-20 00:32:00,
2014-02-19 18:12:00,53.0,16.0,-100.00,WSW,255,8.0,14.0,23,0.00,,,0.00,260.000000,,2014-02-20 01:12:00,
2014-02-19 18:21:00,53.0,16.0,-100.00,WSW,255,8.0,14.0,23,0.00,,,0.00,260.000000,,2014-02-20 01:21:00,
2014-02-19 18:32:00,53.0,16.0,-100.00,WSW,255,8.0,14.0,23,0.00,,,0.00,260.000000,,2014-02-20 01:32:00,
2014-02-19 19:12:00,45.0,14.0,-100.00,West,260,9.0,18.0,28,0.00,,,0.00,28.000000,,2014-02-20 02:12:00,
2014-02-19 19:22:00,45.0,14.0,-100.00,West,260,9.0,18.0,28,0.00,,,0.00,28.000000,,2014-02-20 02:22:00,
2014-02-19 19:32:00,45.0,14.0,-100.00,West,260,9.0,18.0,28,0.00,,,0.00,28.000000,,2014-02-20 02:32:00,
2014-02-19 20:11:00,44.0,10.0,-100.00,WSW,256,12.0,23.0,25,0.00,,,0.00,0.000000,,2014-02-20 03:11:00,
2014-02-19 20:21:00,44.0,10.0,-100.00,WSW,256,12.0,23.0,25,0.00,,,0.00,0.000000,,2014-02-20 03:21:00,
2014-02-19 20:33:00,44.0,10.0,-100.00,WSW,256,12.0,23.0,25,0.00,,,0.00,0.000000,,2014-02-20 03:33:00,
2014-02-19 21:13:00,44.0,11.0,-100.00,West,259,15.0,24.0,26,0.00,,,0.00,0.000000,,2014-02-20 04:13:00,
2014-02-19 21:23:00,44.0,11.0,-100.00,West,259,15.0,24.0,26,0.00,,,0.00,0.000000,,2014-02-20 04:23:00,
2014-02-19 21:33:00,44.0,11.0,-100.00,West,259,15.0,24.0,26,0.00,,,0.00,0.000000,,2014-02-20 04:33:00,
2014-02-19 22:12:00,42.0,11.0,-100.00,WSW,258,9.0,21.0,28,0.00,,,0.00,0.000000,,2014-02-20 05:12:00,
2014-02-19 22:22:00,42.0,11.0,-100.00,WSW,258,9.0,21.0,28,0.00,,,0.00,0.000000,,2014-02-20 05:22:00,
2014-02-19 22:33:00,42.0,11.0,-100.00,WSW,258,9.0,21.0,28,0.00,,,0.00,0.000000,,2014-02-20 05:33:00,
2014-02-19 23:12:00,41.0,14.0,-100.00,WSW,253,6.0,17.0,33,0.00,,,0.00,0.000000,,2014-02-20 06:12:00,
2014-02-19 23:22:00,41.0,14.0,-100.00,WSW,253,6.0,17.0,33,0.00,,,0.00,0.000000,,2014-02-20 06:22:00,
2014-02-19 23:32:00,41.0,14.0,-100.00,WSW,253,6.0,17.0,33,0.00,,,0.00,0.000000,,2014-02-20 06:32:00,